W0DP-11 Weather Reports


time (UTC)temp
C
wind
direction
speed
KPH
gust
KPH
rain 1hr
cm
rain 24hr
cm
rain mn
cm
humidity
%
barometer
mb
20260906203017 27 68 3.2 6.4 0.00 0.00 0.00 67 1021.3
20260906202017 26 68 6.4 11.3 0.00 0.00 0.00 70 1021.2
20260906201017 27 68 1.6 4.8 0.00 0.00 0.00 67 1021.3
20260906200017 27 68 3.2 4.8 0.00 0.00 0.00 71 1021.4
20260906195017 26 68 1.6 3.2 0.00 0.00 0.00 67 1021.3
20260906194017 26 45 1.6 6.4 0.00 0.00 0.00 68 1021.3
20260906193017 26 0.0 3.2 0.00 0.00 0.00 69 1021.3
20260906192017 25 45 3.2 6.4 0.00 0.00 0.00 71 1021.3
20260906191017 25 68 3.2 6.4 0.00 0.00 0.00 70 1021.5
20260906190017 26 0.0 3.2 0.00 0.00 0.00 73 1021.7
20260906185017 25 45 3.2 9.7 0.00 0.00 0.00 70 1021.8
20260906184017 25 45 1.6 4.8 0.00 0.00 0.00 72 1022.0
20260906183037 25 68 1.6 4.8 0.00 0.00 0.00 74 1022.1
20260906182017 25 0.0 0.0 0.00 0.00 0.00 74 1022.2
20260906181017 24 68 3.2 6.4 0.00 0.00 0.00 73 1022.3
20260906180017 24 45 1.6 3.2 0.00 0.00 0.00 75 1022.4
20260906175017 24 45 3.2 6.4 0.00 0.00 0.00 77 1022.5
20260906174037 23 45 1.6 4.8 0.00 0.00 0.00 78 1022.5
20260906173017 23 68 1.6 4.8 0.00 0.00 0.00 78 1022.6
20260906172017 22 68 4.8 12.9 0.00 0.00 0.00 79 1022.5
20260906171017 23 68 4.8 14.5 0.00 0.00 0.00 79 1022.8
20260906170036 24 293 1.6 4.8 0.00 0.00 0.00 77 1023.0
20260906165016 24 68 1.6 4.8 0.00 0.00 0.00 74 1023.1
20260906164017 25 0.0 3.2 0.00 0.00 0.00 74 1023.2
20260906163016 24 0.0 6.4 0.00 0.00 0.00 76 1023.2
20260906162017 23 68 1.6 4.8 0.00 0.00 0.00 78 1023.2
20260906161017 23 270 1.6 4.8 0.00 0.00 0.00 76 1023.3
20260906160037 23 68 1.6 6.4 0.00 0.00 0.00 77 1023.3
20260906155017 23 293 1.6 8.0 0.00 0.00 0.00 75 1023.2
20260906154017 23 68 1.6 4.8 0.00 0.00 0.00 76 1023.2
20260906153017 22 135 1.6 4.8 0.00 0.00 0.00 75 1023.3
20260906152017 22 135 1.6 4.8 0.00 0.00 0.00 75 1023.3
20260906151016 22 158 1.6 8.0 0.00 0.00 0.00 77 1023.3
20260906150016 21 0.0 4.8 0.00 0.00 0.00 77 1023.1
20260906145016 21 158 1.6 6.4 0.00 0.00 0.00 78 1023.2
20260906144016 21 135 1.6 6.4 0.00 0.00 0.00 79 1023.1
20260906143017 20 113 1.6 6.4 0.00 0.00 0.00 80 1023.1
20260906142016 20 68 1.6 3.2 0.00 0.00 0.00 81 1022.9
20260906141016 20 0.0 3.2 0.00 0.00 0.00 80 1023.1
20260906140016 20 180 1.6 6.4 0.00 0.00 0.00 79 1023.4
20260906135016 19 180 1.6 6.4 0.00 0.00 0.00 80 1023.3
20260906134036 19 0.0 3.2 0.00 0.00 0.00 82 1023.5
20260906133016 18 0.0 3.2 0.00 0.00 0.00 82 1023.3
20260906132016 18 0.0 4.8 0.00 0.00 0.00 82 1023.3
20260906131036 17 0.0 3.2 0.00 0.00 0.00 84 1023.2
20260906130016 17 0.0 4.8 0.00 0.00 0.00 85 1023.2
20260906125016 16 0.0 0.0 0.00 0.00 0.00 88 1023.2
20260906124016 16 0.0 1.6 0.00 0.00 0.00 88 1023.3
20260906123016 16 0.0 0.0 0.00 0.00 0.00 88 1023.1
20260906122016 16 0.0 1.6 0.00 0.00 0.00 88 1023.2
20260906121016 16 0.0 3.2 0.00 0.00 0.00 90 1023.1
20260906120016 16 0.0 0.0 0.00 0.00 0.00 91 1023.1
20260906115016 15 0.0 0.0 0.00 0.00 0.00 93 1022.7
20260906114016 14 0.0 3.2 0.00 0.00 0.00 94 1022.5
20260906113016 14 90 1.6 3.2 0.00 0.00 0.00 96 1022.4
20260906112016 13 0.0 0.0 0.00 0.00 0.00 96 1022.3
20260906111016 13 0.0 0.0 0.00 0.00 0.00 95 1022.4
20260906110016 13 0.0 0.0 0.00 0.00 0.00 95 1022.1
20260906105036 13 0.0 0.0 0.00 0.00 0.00 94 1021.9
20260906104016 13 0.0 0.0 0.00 0.00 0.00 94 1021.7
20260906103016 13 0.0 0.0 0.00 0.00 0.00 95 1021.7
20260906102016 13 0.0 0.0 0.00 0.00 0.00 95 1021.7
20260906101016 13 0.0 0.0 0.00 0.00 0.00 94 1021.7
20260906100016 14 0.0 0.0 0.00 0.00 0.00 93 1021.7
20260906095016 15 68 1.6 3.2 0.00 0.00 0.00 93 1021.8
20260906094036 15 68 3.2 6.4 0.00 0.00 0.00 94 1021.7
20260906093056 15 68 3.2 4.8 0.00 0.00 0.00 93 1021.8
20260906092036 14 0.0 0.0 0.00 0.00 0.00 95 1021.7
20260906091016 14 0.0 0.0 0.00 0.00 0.00 96 1021.7
20260906090015 14 0.0 0.0 0.00 0.00 0.00 96 1021.7
20260906085016 13 0.0 0.0 0.00 0.00 0.00 96 1021.7
20260906084036 13 0.0 0.0 0.00 0.00 0.00 96 1021.8
20260906083036 13 0.0 0.0 0.00 0.00 0.00 96 1022.0
20260906082016 13 0.0 0.0 0.00 0.00 0.00 96 1022.0
20260906081058 13 0.0 0.0 0.00 0.00 0.00 96 1022.0
20260906080016 13 0.0 0.0 0.00 0.00 0.00 95 1022.1
20260906075015 13 0.0 0.0 0.00 0.00 0.00 95 1022.2
20260906074016 13 0.0 0.0 0.00 0.00 0.00 94 1022.3
20260906073015 13 0.0 0.0 0.00 0.00 0.00 94 1022.2
20260906072016 13 0.0 0.0 0.00 0.00 0.00 94 1022.3
20260906071036 14 0.0 0.0 0.00 0.00 0.00 94 1022.5
20260906070016 14 0.0 0.0 0.00 0.00 0.00 93 1022.4
20260906065016 14 0.0 0.0 0.00 0.00 0.00 94 1022.7
20260906064036 14 0.0 0.0 0.00 0.00 0.00 93 1022.7
20260906063016 14 0.0 0.0 0.00 0.00 0.00 93 1022.7
20260906062015 14 0.0 0.0 0.00 0.00 0.00 92 1022.6
20260906061035 15 0.0 0.0 0.00 0.00 0.00 91 1022.6
20260906060035 15 0.0 0.0 0.00 0.00 0.00 91 1022.7
20260906055015 15 0.0 1.6 0.00 0.00 0.00 91 1022.6
20260906054035 15 0.0 0.0 0.00 0.00 0.00 90 1022.6
20260906053036 15 135 1.6 3.2 0.00 0.00 0.00 91 1022.4
20260906052035 15 135 1.6 4.8 0.00 0.00 0.00 91 1022.2
20260906051035 15 113 1.6 3.2 0.00 0.00 0.00 91 1022.1
20260906050017 15 135 1.6 6.4 0.00 0.00 0.00 92 1022.1
20260906045036 15 0.0 3.2 0.00 0.00 0.00 92 1022.2
20260906044016 15 0.0 3.2 0.00 0.00 0.00 92 1022.1
20260906043036 15 0.0 1.6 0.00 0.00 0.00 92 1021.8
20260906042016 16 0.0 3.2 0.00 0.00 0.00 91 1021.8
20260906041036 16 0.0 3.2 0.00 0.00 0.00 91 1021.8
20260906040016 16 0.0 4.8 0.00 0.00 0.00 92 1021.7
20260906035036 16 135 1.6 6.4 0.00 0.00 0.00 92 1021.7
20260906034016 16 135 1.6 4.8 0.00 0.00 0.00 93 1021.7
20260906033016 16 0.0 3.2 0.00 0.00 0.00 93 1021.9
20260906032035 16 113 1.6 8.0 0.00 0.00 0.00 94 1021.9
20260906031036 17 0.0 0.0 0.00 0.00 0.00 93 1022.0
20260906030016 17 0.0 1.6 0.00 0.00 0.00 93 1021.9
20260906025035 17 0.0 1.6 0.00 0.00 0.00 93 1021.8
20260906024036 17 158 1.6 6.4 0.00 0.00 0.00 92 1021.6
20260906023015 17 158 1.6 9.7 0.00 0.00 0.00 92 1021.4
20260906022056 17 0.0 6.4 0.00 0.00 0.00 92 1021.3
20260906021036 18 158 1.6 8.0 0.00 0.00 0.00 92 1021.3
20260906020015 18 135 1.6 6.4 0.00 0.00 0.00 91 1021.2
20260906015015 18 0.0 4.8 0.00 0.00 0.00 91 1021.1
20260906014035 18 135 1.6 8.0 0.00 0.00 0.00 90 1020.9
20260906013036 19 0.0 0.0 0.00 0.00 0.00 90 1021.1
20260906012035 19 0.0 0.0 0.00 0.00 0.00 89 1020.9
20260906011036 19 0.0 0.0 0.00 0.00 0.00 88 1020.8
20260906010056 20 0.0 0.0 0.00 0.00 0.00 87 1020.7
20260906005035 20 0.0 0.0 0.00 0.00 0.00 86 1020.6
20260906004035 20 0.0 3.2 0.00 0.00 0.00 85 1020.5
20260906003015 21 0.0 0.0 0.00 0.00 0.00 83 1020.4
20260906002018 21 0.0 3.2 0.00 0.00 0.00 82 1020.4
20260906001017 21 158 1.6 3.2 0.00 0.00 0.00 81 1020.5
20260906000017 22 135 1.6 4.8 0.00 0.00 0.00 79 1020.5
20260905235017 22 0.0 4.8 0.00 0.00 0.00 79 1020.7
20260905234017 22 158 1.6 3.2 0.00 0.00 0.00 80 1020.8
20260905233017 22 135 1.6 6.4 0.00 0.00 0.00 80 1020.7
20260905232017 22 0.0 4.8 0.00 0.00 0.00 80 1020.8
20260905231035 22 135 1.6 3.2 0.00 0.00 0.00 79 1020.9
20260905230017 22 135 1.6 6.4 0.00 0.00 0.00 78 1020.9
20260905225017 22 135 1.6 4.8 0.00 0.00 0.00 80 1021.0
20260905224017 22 135 1.6 4.8 0.00 0.00 0.00 80 1020.8
20260905223017 22 135 1.6 6.4 0.00 0.00 0.00 79 1020.7
20260905222017 22 0.0 1.6 0.00 0.00 0.00 79 1021.0
20260905221017 22 0.0 1.6 0.00 0.00 0.00 77 1021.1
20260905220017 22 0.0 3.2 0.00 0.00 0.00 77 1021.3
20260905215017 22 0.0 4.8 0.00 0.00 0.00 76 1021.3
20260905214017 23 270 1.6 4.8 0.00 0.00 0.00 76 1021.6
20260905213017 23 293 1.6 3.2 0.00 0.00 0.00 78 1021.6
20260905212017 23 0.0 3.2 0.00 0.00 0.00 77 1021.8
20260905211037 22 0.0 3.2 0.00 0.00 0.00 78 1021.7
20260905210017 22 293 1.6 4.8 0.00 0.00 0.00 79 1021.9
20260905205017 22 270 1.6 6.4 0.00 0.00 0.00 80 1021.9
20260905204017 22 270 3.2 6.4 0.00 0.00 0.00 80 1021.9